2019-036Y (44361 NORAD) Tracking and Keplerian Element Data

This shows tracking and keplerian element data for the satellite.

Feedback or suggestion? Click here.




ElementValue
Catalog44361
Name2019-036Y
Epoch Orbit405
Epoch Day204.09956281
Epoch Year2019
RAAN19.6499
Inclination28.5203
Eccentricity0.0393353
Argument of Perigee39.9931
Mean Anonmoly322.8957
Mean Motion14.9875922
Decay Rate0.0001418
L11 44361U 19036Y 19204.09956281 .00014180 00000-0 19718-3 0 9996
L22 44361 28.5203 19.6499 0393353 39.9931 322.8957 14.98759220 4050

Live tracking and technical data element details for 2019-036Y (NORAD 44361). 2019-036Y can be tracked NOW for your location showing map with azimuth and elevation plus other details from your city location.

Track the satellite on the map from your city or location and see movement details for azimuth, elevation, latitude, longitude, range, height, and movement on the map or in text.







IsCatalogInMostPopularTable: catalog: 44361, numindb: 19
Update: records affected: 1



GetName: 44361 2019-036Y

Hit Count: updated at: Tue, 22 Oct 2019 23:47:34 GMT